| time (UTC) | temp C | wind direction | speed KPH | gust KPH | rain 1hr cm | rain 24hr cm | rain mn cm | humidity % | barometer mb |
| 20260505100041 | 36 | 268 | 24.1 | 0.0 | 0.00 | 0.00 | 20.98 | 19 | 1005.0 |
| 20260505093053 | 36 | 268 | 24.1 | 0.0 | 0.00 | 0.00 | 20.98 | 19 | 1005.0 |
| 20260505090105 | 36 | 261 | 17.7 | 0.0 | 0.00 | 0.00 | 20.98 | 18 | 1006.0 |
| 20260505083118 | 36 | 261 | 17.7 | 0.0 | 0.00 | 0.00 | 20.98 | 18 | 1006.0 |
| 20260505080131 | 36 | 262 | 16.1 | 0.0 | 0.00 | 0.00 | 20.98 | 18 | 1008.0 |
| 20260505073144 | 36 | 262 | 16.1 | 0.0 | 0.00 | 0.00 | 20.98 | 18 | 1008.0 |
| 20260505070156 | 35 | 275 | 14.5 | 0.0 | 0.00 | 0.00 | 20.98 | 20 | 1009.0 |
| 20260505063209 | 35 | 275 | 14.5 | 0.0 | 0.00 | 0.00 | 20.98 | 20 | 1009.0 |
| 20260505060221 | 34 | 288 | 14.5 | 0.0 | 0.00 | 0.00 | 20.98 | 22 | 1010.0 |
| 20260505053234 | 34 | 290 | 16.1 | 0.0 | 0.00 | 0.00 | 20.98 | 22 | 1010.0 |
| 20260505050247 | 32 | 292 | 14.5 | 0.0 | 0.00 | 0.00 | 20.98 | 30 | 1011.0 |
| 20260505040311 | 29 | 287 | 12.9 | 0.0 | 0.00 | 0.00 | 20.98 | 42 | 1011.0 |
| 20260505033324 | 29 | 287 | 12.9 | 0.0 | 0.00 | 0.00 | 20.98 | 42 | 1011.0 |
| 20260505030336 | 26 | 275 | 11.3 | 0.0 | 0.00 | 0.00 | 20.98 | 62 | 1011.0 |
| 20260505023349 | 26 | 275 | 11.3 | 0.0 | 0.00 | 0.00 | 20.98 | 62 | 1011.0 |
| 20260505020402 | 22 | 254 | 8.0 | 0.0 | 0.00 | 0.00 | 20.98 | 82 | 1011.0 |
| 20260505013413 | 22 | 254 | 8.0 | 0.0 | 0.00 | 0.00 | 20.98 | 82 | 1011.0 |
| 20260505010426 | 21 | 245 | 8.0 | 0.0 | 0.00 | 0.00 | 20.98 | 96 | 1010.0 |
| 20260505003438 | 21 | 245 | 8.0 | 0.0 | 0.00 | 0.00 | 20.98 | 94 | 1010.0 |
| 20260505000451 | 20 | 254 | 8.0 | 0.0 | 0.00 | 0.00 | 20.98 | 94 | 1010.0 |
| 20260504233504 | 20 | 258 | 8.0 | 0.0 | 0.00 | 0.00 | 20.98 | 94 | 1010.0 |
| 20260504230517 | 21 | 261 | 8.0 | 0.0 | 0.00 | 0.00 | 20.98 | 93 | 1009.0 |
| 20260504223529 | 21 | 261 | 8.0 | 0.0 | 0.00 | 0.00 | 20.98 | 93 | 1009.0 |
| 20260504220542 | 21 | 274 | 9.7 | 0.0 | 0.00 | 0.00 | 20.98 | 91 | 1009.0 |
| 20260504213555 | 21 | 274 | 9.7 | 0.0 | 0.00 | 0.00 | 20.98 | 91 | 1009.0 |
| 20260504210607 | 21 | 279 | 11.3 | 0.0 | 0.00 | 0.00 | 20.98 | 94 | 1009.0 |
| 20260504203620 | 21 | 279 | 11.3 | 0.0 | 0.00 | 0.00 | 20.98 | 94 | 1009.0 |
| 20260504200632 | 21 | 283 | 8.0 | 0.0 | 0.00 | 0.00 | 20.98 | 95 | 1010.0 |
| 20260504193645 | 21 | 283 | 8.0 | 0.0 | 0.00 | 0.00 | 20.98 | 95 | 1010.0 |
| 20260504190658 | 21 | 277 | 8.0 | 0.0 | 0.00 | 0.00 | 20.98 | 94 | 1010.0 |
| 20260504183710 | 21 | 277 | 8.0 | 0.0 | 0.00 | 0.00 | 20.98 | 94 | 1010.0 |
| 20260504180723 | 22 | 263 | 9.7 | 0.0 | 0.00 | 0.00 | 20.98 | 90 | 1010.0 |
| 20260504170748 | 23 | 259 | 12.9 | 0.0 | 0.00 | 0.00 | 20.98 | 82 | 1010.0 |
| 20260504150839 | 26 | 263 | 16.1 | 0.0 | 0.00 | 0.00 | 20.98 | 61 | 1009.0 |